Ephrata, WA

2:44 PM PDT on August 24, 2016 (GMT -0700)
Ephrata Municipal

Weather History for KEPH - February, 2012

Change the Weather History Date:

Monday, February 27, 2012

  Actual Average Record
Temperature  
Mean Temperature 30 °F 37 °F  
Max Temperature 39 °F 47 °F 64 °F (1972)
Min Temperature 20 °F 28 °F 4 °F (1993)
Degree Days  
Heating Degree Days 35 28  
Month to date heating degree days 757 837  
Since 1 July heating degree days 4380 4545  
Cooling Degree Days 0 0  
Month to date cooling degree days 0 0  
Year to date cooling degree days 0 0  
Moisture  
Dew Point 11 °F    
Average Humidity 52    
Maximum Humidity 71    
Minimum Humidity 32    
Precipitation  
Precipitation 0.00 in 0.03 in 0.40 in (1999)
Month to date precipitation 0.58 0.71  
Year to date precipitation 0.82 1.62  
Sea Level Pressure  
Sea Level Pressure 30.15 in    
Wind  
Wind Speed 9 mph (NNW)    
Max Wind Speed 24 mph    
Max Gust Speed 29 mph    
Visibility 10 miles    
Events      
T = Trace of Precipitation, MM = Missing Value Source: NWS Daily Summary

Daily Weather History Graph

Daily Weather History Graph

Search for Another Location

Airport or City:

Trip Planner

Search our weather history database for the weather conditions in past years. The results will help you decide how hot, cold, wet, or windy it might be!

Date:

Astronomy

Feb. 27, 2012 Rise Set
Actual Time 6:42 AM PST 5:39 PM PST
Civil Twilight 6:11 AM PST 6:10 PM PST
Nautical Twilight 5:36 AM PST 6:46 PM PST
Astronomical Twilight 5:01 AM PST 7:21 PM PST
Moon 8:47 AM PST (2/27) No Moon Set
Length of Visible Light 11h 58m
Length of Day
10h 56m
Waxing Crescent, 30% of the Moon is Illuminated
Feb 27
Waxing Crescent
Feb 29
First Quarter
Mar 8
Full
Mar 14
Last Quarter
Mar 22
New

Hourly Weather History & Observations

Time (PST) Temp. Windchill Dew Point Humidity Pressure Visibility Wind Dir Wind Speed Gust Speed Precip Events Conditions
12:53 AM 24.1 °F 13.1 °F 10.9 °F 57% 30.19 in 10.0 mi NNW 11.5 mph - N/A   Clear
1:53 AM 21.9 °F 10.4 °F 10.0 °F 60% 30.19 in 10.0 mi NNW 11.5 mph - N/A   Clear
2:53 AM 23.0 °F 9.6 °F 9.0 °F 55% 30.19 in 10.0 mi North 16.1 mph - N/A   Clear
3:53 AM 21.9 °F 7.3 °F 8.1 °F 55% 30.20 in 10.0 mi North 18.4 mph - N/A   Clear
4:53 AM 21.9 °F 7.8 °F 8.1 °F 55% 30.21 in 10.0 mi North 17.3 mph - N/A   Clear
5:53 AM 21.0 °F 6.6 °F 7.0 °F 55% 30.23 in 10.0 mi North 17.3 mph - N/A   Clear
6:53 AM 21.0 °F 8.6 °F 7.0 °F 55% 30.23 in 10.0 mi NNW 12.7 mph - N/A   Clear
7:53 AM 23.0 °F 11.7 °F 7.0 °F 50% 30.24 in 10.0 mi NNW 11.5 mph - N/A   Clear
8:53 AM 25.0 °F 13.6 °F 9.0 °F 51% 30.23 in 10.0 mi NNW 12.7 mph - N/A   Clear
9:53 AM 28.0 °F 16.1 °F 10.0 °F 47% 30.23 in 10.0 mi NNW 16.1 mph - N/A   Clear
10:53 AM 30.0 °F 19.1 °F 12.0 °F 47% 30.22 in 10.0 mi NNW 15.0 mph - N/A   Clear
11:53 AM 33.1 °F 24.4 °F 12.0 °F 42% 30.20 in 10.0 mi NNW 11.5 mph - N/A   Clear
12:53 PM 35.1 °F 27.4 °F 10.9 °F 37% 30.17 in 10.0 mi NNW 10.4 mph - N/A   Clear
1:53 PM 36.0 °F 33.3 °F 10.9 °F 36% 30.15 in 10.0 mi NNW 3.5 mph - N/A   Clear
2:53 PM 37.9 °F 34.4 °F 10.9 °F 33% 30.13 in 10.0 mi Variable 4.6 mph - N/A   Clear
3:53 PM 37.9 °F - 10.0 °F 32% 30.12 in 10.0 mi Calm Calm - N/A   Clear
4:53 PM 37.0 °F - 10.9 °F 34% 30.10 in 10.0 mi Calm Calm - N/A   Clear
5:53 PM 30.9 °F 26.2 °F 15.1 °F 52% 30.09 in 10.0 mi South 4.6 mph - N/A   Clear
6:53 PM 27.0 °F - 15.1 °F 61% 30.08 in 10.0 mi Calm Calm - N/A   Clear
7:53 PM 26.1 °F - 15.1 °F 63% 30.07 in 10.0 mi Calm Calm - N/A   Clear
8:53 PM 24.1 °F - 15.1 °F 69% 30.07 in 10.0 mi Calm Calm - N/A   Clear
9:53 PM 23.0 °F - 14.0 °F 68% 30.06 in 10.0 mi Calm Calm - N/A   Clear
10:53 PM 21.9 °F 15.7 °F 14.0 °F 72% 30.06 in 10.0 mi NNE 4.6 mph - N/A   Clear
11:53 PM 21.0 °F 13.4 °F 14.0 °F 74% 30.04 in 10.0 mi NE 5.8 mph - N/A   Clear